Hourly Data Report for September 23, 2017

All times are specified in Local Standard Time (LST). Add 1 hour to adjust for Daylight Saving Time where and when it is observed.

CHARLOTTETOWN A
PRINCE EDWARD ISLAND

46°17'21.000" N
63°07'09.000" W
48.50 m
8300301
71706
YYG

Download Data

Hourly Data (September 2017)
Hourly Data Report for September 23, 2017
Temp Definition
°C
Dew Point Temp Definition
°C
Rel Hum Definition
%
Wind Dir Definition
10's deg

Wind Spd Definition
km/h
Visibility Definition
km
Stn Press Definition
kPa
Hmdx Definition


Wind Chill Definition


Weather Definition


TIME
00:00 Legend Double Dagger 10.8 9.5 92 17 5 24.1 101.32     LegendNANA
01:00 Legend Double Dagger 11.9 10.6 92 18 4 24.1 101.31     LegendNANA
02:00 Legend Double Dagger 11.6 10.9 95 20 10 24.1 101.23     Clear
03:00 Legend Double Dagger 12.7 11.9 95 21 10 24.1 101.18     LegendNANA
04:00 Legend Double Dagger 13.0 12.3 95 21 11 24.1 101.12     LegendNANA
05:00 Legend Double Dagger 12.8 11.9 94 21 11 24.1 101.07     Clear
06:00 Legend Double Dagger 12.6 11.7 94 20 9 24.1 101.03     LegendNANA
07:00 Legend Double Dagger 13.6 11.6 88 21 10 24.1 101.00     LegendNANA
08:00 Legend Double Dagger 15.7 12.5 81 22 12 24.1 101.00     Clear
09:00 Legend Double Dagger 17.5 13.0 75 23 15 24.1 100.99     LegendNANA
10:00 Legend Double Dagger 18.8 13.9 73 23 16 24.1 100.94     LegendNANA
11:00 Legend Double Dagger 19.8 14.2 70 23 22 24.1 100.85     Mainly Clear
12:00 Legend Double Dagger 21.2 16.1 73 25 25 24.1 100.85 26   LegendNANA
13:00 Legend Double Dagger 22.8 17.3 71 24 21 24.1 100.74 28   LegendNANA
14:00 Legend Double Dagger 23.6 17.1 66 24 23 24.1 100.73 29   Mostly Cloudy
15:00 Legend Double Dagger 24.6 17.0 62 24 16 24.1 100.66 30   LegendNANA
16:00 Legend Double Dagger 25.2 15.7 55 26 15 24.1 100.66 30   LegendNANA
17:00 Legend Double Dagger 24.9 11.4 42 27 12 24.1 100.72 27   Mainly Clear
18:00 Legend Double Dagger 22.6 12.0 51 24 10 24.1 100.80 25   LegendNANA
19:00 Legend Double Dagger 17.8 12.1 69 4 18 24.1 100.97     LegendNANA
20:00 Legend Double Dagger 15.8 11.8 77 2 10 24.1 101.05     Mainly Clear
21:00 Legend Double Dagger 14.8 11.8 82 1 9 24.1 101.10     LegendNANA
22:00 Legend Double Dagger 14.2 11.7 85 1 11 24.1 101.13     LegendNANA
23:00 Legend Double Dagger 13.7 11.3 86 3 13 24.1 101.15     Mainly Clear

Notes on Data Quality.

Legend

  • E = Estimated
  • M = Missing
  • NA = Not Available
  • ‡ = Partner data that is not subject to review by the National Climate Archives
Date modified: